This is the latest recevied weather packets stored in our database for station/object N6GPM. If no packets are shown the sender has not sent any weather packets the latest 10 day(s).
| Time | Temp. | Humidity | Pressure | Rain* | Wind** | Luminosity | Snow |
|---|---|---|---|---|---|---|---|
| 1788493072 | 20.56° C | 64% | 1016.2 hPa | 0 mm | - | 0 W/m² | - |
| 1788492748 | 20.56° C | 63% | 1016.2 hPa | 0 mm | - | 0 W/m² | - |
| 1788492444 | 20.56° C | 63% | 1015.9 hPa | 0 mm | - | 0 W/m² | - |
| 1788492143 | 20.56° C | 63% | 1016 hPa | 0 mm | - | 0 W/m² | - |
| 1788491838 | 20.56° C | 62% | 1016.1 hPa | 0 mm | - | 0 W/m² | - |
| 1788491533 | 21.11° C | 62% | 1015.7 hPa | 0 mm | - | 0 W/m² | - |
| 1788491229 | 21.11° C | 62% | 1015.6 hPa | 0 mm | - | 0 W/m² | - |
| 1788490924 | 21.11° C | 61% | 1015.8 hPa | 0 mm | - | 0 W/m² | - |
| 1788490621 | 21.11° C | 61% | 1015.7 hPa | 0 mm | - | 0 W/m² | - |
| 1788490315 | 21.11° C | 61% | 1015.5 hPa | 0 mm | - | 0 W/m² | - |
| 1788490011 | 21.11° C | 61% | 1015.8 hPa | 0 mm | - | 0 W/m² | - |
| 1788489706 | 21.67° C | 60% | 1015.6 hPa | 0 mm | - | 0 W/m² | - |
| 1788489402 | 21.67° C | 60% | 1015.6 hPa | 0 mm | - | 0 W/m² | - |
| 1788489098 | 21.67° C | 59% | 1015.7 hPa | 0 mm | - | 0 W/m² | - |
| 1788488797 | 21.67° C | 58% | 1015.3 hPa | 0 mm | - | 1 W/m² | - |
| 1788488494 | 22.22° C | 58% | 1015.7 hPa | 0 mm | - | 2 W/m² | - |
| 1788488190 | 22.22° C | 58% | 1015.5 hPa | 0 mm | - | 3 W/m² | - |
| 1788487885 | 22.22° C | 57% | 1015.5 hPa | 0 mm | - | 6 W/m² | - |
| 1788487581 | 22.78° C | 57% | 1015.7 hPa | 0 mm | - | 10 W/m² | - |
| 1788487275 | 22.78° C | 55% | 1015.7 hPa | 0 mm | - | 14 W/m² | - |
| 1788486969 | 22.78° C | 54% | 1015.4 hPa | 0 mm | - | 19 W/m² | - |
| 1788486668 | 23.33° C | 53% | 1015.6 hPa | 0 mm | - | 24 W/m² | - |
| 1788486362 | 23.33° C | 53% | 1015.6 hPa | 0 mm | - | 30 W/m² | - |
| 1788486058 | 23.33° C | 53% | 1015.6 hPa | 0 mm | - | 36 W/m² | - |
| 1788485755 | 23.89° C | 52% | 1015.5 hPa | 0 mm | - | 42 W/m² | - |
* Rain latest hour (hover to see other rain measurements)
** Current wind speed in m/s (hover to see current wind gust speed)